Location: ???????
(55.4362°N, 38.1183°E)
Time: 00:48:22
(UTC+00:00)

METEOR M2 - Pass Details

Date: 29 November 2021
Orbit: 818 x 827 km, 98.4° (Epoch: 28 January)

Event Time Altitude Azimuth Distance (km) Brightness Sun altitude
Rises 04:28:34 0° 19° (NNE) 3,375 ? -7.9°
Reaches altitude 10° 04:31:03 10° 26° (NNE) 2,436 ? -7.6°
Maximum altitude 04:36:11 43° 97° (E) 1,145 ? -6.9°
Drops below altitude 10° 04:41:16 10° 169° (S) 2,414 ? -6.3°
Sets 04:43:43 0° 176° (S) 3,341 ? -6.0°
